Atlantic - Newfoundland: Past 24 Hour Conditions

 

Banquereau - 44139

10:00 AM ADT 01 November 2014Buoy position: 44.27N 57.08W
This table is a summary of hourly weather conditions for the past 24 hours.
Date / Time
(ADT)
Wind(knots) Wave height(m) Wave period(s) Pressure(kPa) Air tempC) Water tempC)
01 November 2014
10:00 E 23 gust 31 2.8 6.0 101.3 13 13
9:00 ENE 23 gust 29 2.5 6.0 101.4 12 13
8:00 ENE 23 gust 27 2.2 6.0 101.5 12 13
7:00 ENE 23 gust 27 2.2 N/A 101.5 11 13
6:00 ENE 23 gust 27 2.0 10.0 101.6 11 13
5:00 E 19 gust 23 2.0 8.0 101.7 11 13
4:00 E 18 gust 21 1.8 10.0 101.8 12 13
3:00 E 18 gust 21 1.8 8.0 101.8 12 13
2:00 ENE 16 gust 19 1.7 9.0 101.9 12 13
1:00 ENE 14 gust 18 1.7 9.0 101.9 12 13
0:00 E 14 gust 16 1.6 9.0 102.0 11 13
31 October 2014
23:00 ENE 16 gust 18 1.7 9.0 102.0 11 13
22:00 ENE 12 gust 16 1.8 8.0 102.0 11 13
21:00 ENE 10 gust 12 1.7 9.0 102.1 11 13
20:00 NE 10 gust 14 1.7 9.0 102.0 11 13
19:00 NNE 10 gust 12 1.8 9.0 102.0 11 13
18:00 NNE 10 gust 12 1.9 8.0 101.9 11 13
17:00 NNE 8 gust 12 1.9 9.0 101.9 11 13
16:00 N 8 gust 12 2.0 8.0 101.9 11 13
15:00 N 8 gust 10 2.0 8.0 101.8 11 13
14:00 N 8 gust 12 2.1 8.0 101.7 11 13
13:00 N 8 gust 10 2.0 8.0 101.7 11 13
12:00 N 10 gust 12 2.1 9.0 101.7 11 13
11:00 N 12 gust 14 2.4 9.0 101.7 11 13
10:00 NNW 12 gust 14 2.3 8.0 101.6 12 13
 
Map of Atlantic - Newfoundland marine weather areas Southwestern Grand Banks - 44138 Banquereau - 44139 Tail of the Bank - 44140 Nickerson Bank - 44251 Northeast Burgeo Bank - 44255 Blanc-Sablon Airport Cap Whittle Chevery Natashquan Airport Heath Point Miscou Island Grand Étang Ingonish Beach North Mountain St.Paul Island J.A. Douglas McCurdy Sydney Airport Charlottetown Airport East Point North Cape Argentia Bonavista Burgeo Cape Race Corner Brook Daniel's Harbour Englee Ferolle Point La Scie Port aux Basques Rocky Harbour Sagona Island St. Anthony Airport St. John's Int'l Airport St. Lawrence Stephenville Airport Twillingate Winterland Wreckhouse Cartwright Airport Mary's Harbour Grates Cove Pool's Island Marticot Island Long Pond Îles de la Madeleine Airport
Legend: buoyBuoy land stationLand Station